User: anonymous   Login
Location: *
(50.9167°S, 179.4000°W)
Time: 18:54:36
(UTC+00:00)
Language:

Cosmos 1934 Rocket - Orbit

View from above orbital plane
View from above orbital plane
View from above satellite
View from above satellite

Ground track
Ground track

The orbit data is extracted from the following two-line orbital elements,

1 18986U 88023B   24140.86688089  .00000285  00000-0  26417-3 0  9995
2 18986  82.9527 322.0740 0040710 319.7845  40.0302 13.78794058819058
Epoch (UTC): 19 May 2024 20:48:18
Eccentricity: 0.0040710
inclination: 82.9527°
perigee height: 938 km
apogee height: 998 km
right ascension of ascending node: 322.0740°
argument of perigee: 319.7845°
revolutions per day: 13.78794058
mean anomaly at epoch: 40.0302°
orbit number at epoch: 81905

The dashed part of the orbit path shows where the satellite is in the earth's shadow,  

DLR